Tracking 23114 objects as of 18-May-2021
HD Live streaming from Space Station
objects crossing your sky now

CZ-4 DEB

Track CZ-4 DEB now!
10-day predictions


NORAD ID: 29043
Int'l Code: 2004-035K
Perigee: 574.8 km
Apogee: 584.6 km
Inclination: 97.7 °
Period: 96.1 minutes
Semi major axis: 6950 km
RCS: 0.0201 m2 (small)
Launch date: September 8, 2004
Source: People's Republic of China (PRC)
Launch site: Taiyaun Space Center, China (TSC)

Note: This is SATELLITE DEBRIS
aabbcc
Your satellite tracking list
Your tracking list is empty




NASA's NSSDC Master Catalog

Two Line Element Set (TLE):
1 29043U 04035K   21137.89212481  .00000732  00000-0  66603-4 0  9996
2 29043  97.6817 163.3806 0007055 210.9453 149.1355 14.98169631842400
Source of the keplerian elements: AFSPC